[[{"header":{"parameterUnit":"m.s-1","parameterCategory":1,"la1":30.2991,"la2":30.254,"lo1":-89.0895,"lo2":-89.0444,"dy":0.0017,"dx":0.0017,"nx":28,"ny":28,"refTime":"2023-04-16T21:00:00:Z","depth":0,"parameterNumber":2,"parameterNumberName":"U-component_of_WINDS"},"data":[0,0,0,0,0,0,0,0,0,0,0,0,0,0,0,0,0,0,0,0,0,0,0,0,0,0,0,0,0,0,0,0,0,0,0,0,0,0,0,0,0,0,0,0,0,0,0,0,0,0,0,0,0,0,0,0,0,0,-0.082,-0.0819,0,-0.0755,-0.0754,-0.0754,-0.0719,-0.0719,-0.0718,-0.0718,-0.0654,-0.0652,-0.0651,0,0,0,0,0,0,0,0,0,0,0,0,0,-0.0915,-0.0913,-0.082,-0.0819,-0.0818,-0.0755,-0.0754,-0.0753,-0.0719,-0.0719,-0.0718,-0.0718,-0.0654,-0.0652,-0.065,0,0,0,0,0,0,0,0,0,0,0,0,0,-0.0864,-0.0913,-0.082,-0.0793,-0.079,-0.0755,-0.0754,-0.0753,-0.0719,-0.0719,-0.0718,-0.0718,-0.0655,-0.0653,-0.065,-0.0638,0,0,-0.0643,-0.0642,0,0,0,0,0,0,0,0,-0.0867,-0.0861,-0.0798,-0.0795,-0.0791,-0.0745,-0.0764,-0.0714,-0.0719,-0.0746,-0.0718,-0.0718,-0.0684,-0.0679,-0.0668,-0.0634,-0.0632,-0.0642,-0.0641,-0.064,-0.0639,0,0,0,0,0,0,0,-0.0871,-0.0863,-0.0794,-0.0797,-0.0793,-0.0785,-0.0778,-0.0755,-0.0717,-0.0743,-0.0741,-0.0733,-0.0682,-0.067,-0.0666,-0.0631,-0.0642,-0.064,-0.0639,-0.0638,-0.0585,-0.0585,0,0,0,0,0,0,-0.0878,-0.0867,-0.0796,-0.0792,-0.083,-0.0783,-0.0775,-0.076,-0.0717,-0.071,-0.0734,-0.0732,-0.0674,-0.0669,-0.0663,-0.0646,-0.064,-0.0638,-0.0636,-0.0585,-0.0585,-0.0585,0,0,0,0,0,0,-0.0881,-0.0872,-0.0799,-0.0829,-0.0819,-0.0782,-0.0765,-0.0759,-0.0746,-0.0709,-0.0703,-0.0728,-0.0674,-0.0667,-0.0644,-0.0643,-0.0636,-0.0634,-0.0585,-0.0585,-0.0585,-0.0612,0,0,0,0,0,0,-0.0883,-0.0873,-0.0868,-0.0829,-0.0817,-0.078,-0.0765,-0.0757,-0.0742,-0.0739,-0.0702,-0.0696,-0.0673,-0.0648,-0.0642,-0.064,-0.0632,-0.0585,-0.0585,-0.0585,-0.0611,-0.0613,-0.0614,0,0,0,0,0,-0.0887,-0.0878,-0.0868,-0.0859,-0.0809,-0.078,-0.0774,-0.0748,-0.0742,-0.0736,-0.0713,-0.0697,-0.0645,-0.0646,-0.0639,-0.0636,-0.0585,-0.0585,-0.0585,-0.061,-0.0612,-0.0614,0,0,0,0,0,0,-0.0918,-0.0872,-0.086,-0.0838,-0.0813,-0.0774,-0.0766,-0.0751,-0.0727,-0.0726,-0.0695,-0.0687,-0.0668,-0.065,-0.0652,-0.0622,-0.0613,-0.0612,-0.0635,-0.0637,-0.0638,-0.0643,-0.063,0,0,0,0,0,-0.0922,-0.0902,-0.0863,-0.0848,-0.0836,-0.0803,-0.079,-0.0772,-0.0745,-0.0734,-0.0709,-0.0684,-0.0662,-0.0648,-0.0626,-0.0608,-0.06,-0.0603,-0.0605,-0.0606,-0.0606,-0.0596,-0.0597,-0.0586,-0.0586,-0.0586,0,0,-0.0931,-0.0903,-0.0893,-0.0853,-0.0832,-0.0812,-0.0795,-0.0775,-0.076,-0.0732,-0.0709,-0.0689,-0.066,-0.064,-0.0629,-0.0624,-0.0607,-0.0606,-0.0608,-0.0606,-0.0596,-0.0597,-0.0598,-0.0586,-0.0586,-0.0586,0,0,-0.0937,-0.0914,-0.0898,-0.0877,-0.0845,-0.0824,-0.082,-0.0783,-0.077,-0.0746,-0.0724,-0.0707,-0.067,-0.0649,-0.0634,-0.0633,-0.0618,-0.0627,-0.0637,-0.0627,-0.0628,-0.0629,-0.0629,-0.0629,-0.0626,-0.0626,-0.0627,0,-0.0952,-0.0921,-0.0893,-0.0874,-0.0857,-0.0831,-0.0815,-0.0797,-0.0759,-0.0749,-0.0743,-0.0696,-0.0674,-0.0649,-0.0649,-0.0637,-0.0633,-0.0631,-0.063,-0.063,-0.0631,-0.0631,-0.0631,-0.0628,-0.0628,-0.0627,-0.0627,0,-0.0941,-0.092,-0.0911,-0.0876,-0.0858,-0.0841,-0.0812,-0.0798,-0.0782,-0.0761,-0.0738,-0.0711,-0.0683,-0.0676,-0.066,-0.0649,-0.0646,-0.0636,-0.0626,-0.0633,-0.0633,-0.0633,-0.063,-0.0629,-0.0629,-0.0628,0,0,-0.0964,-0.0913,-0.0911,-0.0894,-0.0857,-0.0841,-0.0823,-0.0795,-0.0784,-0.076,-0.0744,-0.0714,-0.0704,-0.0687,-0.0668,-0.066,-0.0662,-0.0651,-0.0649,-0.0654,-0.0649,-0.0658,-0.0658,-0.0652,-0.0652,-0.0652,-0.0652,0,-0.0965,-0.0931,-0.0906,-0.0882,-0.0863,-0.0837,-0.0822,-0.0798,-0.0779,-0.076,-0.0739,-0.0718,-0.0706,-0.0696,-0.0686,-0.0664,-0.0661,-0.0663,-0.0638,-0.0638,-0.0647,-0.0658,-0.0666,-0.0668,-0.0651,-0.0651,-0.0651,0,-0.0961,-0.0937,-0.0911,-0.0877,-0.0868,-0.0854,-0.0827,-0.081,-0.0782,-0.0769,-0.075,-0.0731,-0.0713,-0.0705,-0.0679,-0.0681,-0.0669,-0.0657,-0.0656,-0.0653,-0.0645,-0.0655,-0.0668,-0.0668,-0.0651,-0.0651,-0.0651,0,-0.0981,-0.0942,-0.0922,-0.0909,-0.0868,-0.0859,-0.0842,-0.0814,-0.08,-0.0776,-0.0767,-0.0742,-0.0728,-0.0709,-0.0685,-0.0681,-0.0662,-0.0652,-0.0651,-0.0651,-0.0648,-0.0648,-0.0659,-0.064,-0.064,-0.064,-0.064,0,-0.0984,-0.097,-0.093,-0.0918,-0.0901,-0.0873,-0.0857,-0.0838,-0.0814,-0.0798,-0.0775,-0.0761,-0.0729,-0.0711,-0.0691,-0.0673,-0.0667,-0.0656,-0.0651,-0.0658,-0.066,-0.0651,-0.065,-0.064,-0.064,-0.064,-0.064,0,-0.1004,-0.0977,-0.0953,-0.0917,-0.0907,-0.0897,-0.0866,-0.0853,-0.0833,-0.0813,-0.0807,-0.0775,-0.0753,-0.0726,-0.0695,-0.0682,-0.0666,-0.0658,-0.0675,-0.0672,-0.0673,-0.0674,-0.0678,-0.0678,-0.0659,-0.0659,-0.0659,0,-0.1008,-0.0996,-0.0958,-0.0946,-0.0929,-0.0909,-0.0894,-0.0866,-0.0851,-0.082,-0.0812,-0.0788,-0.0767,-0.0733,-0.0707,-0.0684,-0.0676,-0.0679,-0.0672,-0.068,-0.0676,-0.0678,-0.0677,-0.0681,-0.0681,-0.0681,-0.0682,0,-0.1018,-0.1006,-0.0984,-0.0959,-0.0941,-0.092,-0.0898,-0.0889,-0.0856,-0.0841,-0.0818,-0.0802,-0.0771,-0.0748,-0.0721,-0.0704,-0.0688,-0.0684,-0.0683,-0.069,-0.0701,-0.0696,-0.0681,-0.0684,-0.0684,-0.0684,-0.0684,-0.0683,-0.103,-0.1019,-0.0991,-0.0968,-0.0949,-0.0929,-0.0915,-0.0893,-0.0873,-0.0845,-0.083,-0.0808,-0.0782,-0.0744,-0.0728,-0.071,-0.0705,-0.0703,-0.0702,-0.0702,-0.0705,-0.0703,-0.0705,-0.0705,-0.0705,-0.0705,-0.0705,0,-0.104,-0.1021,-0.1,-0.097,-0.0953,-0.0938,-0.0913,-0.09,-0.088,-0.0857,-0.0837,-0.0811,-0.0789,-0.0762,-0.0738,-0.0729,-0.0721,-0.0724,-0.0724,-0.0721,-0.0711,-0.0715,-0.073,-0.073,-0.073,-0.073,-0.073,-0.073,-0.1043,-0.1023,-0.1008,-0.0978,-0.0959,-0.0937,-0.0924,-0.0906,-0.0887,-0.0859,-0.084,-0.0822,-0.0798,-0.0772,-0.0751,-0.0744,-0.0736,-0.0741,-0.0732,-0.0723,-0.0721,-0.0719,-0.0723,-0.074,-0.074,-0.0743,-0.0744,-0.0744]},{"header":{"parameterUnit":"m.s-1","parameterCategory":1,"la1":30.2991,"la2":30.254,"lo1":-89.0895,"lo2":-89.0444,"dy":0.0017,"dx":0.0017,"nx":28,"ny":28,"refTime":"2023-04-16T21:00:00:Z","depth":0,"parameterNumber":3,"parameterNumberName":"V-component_of_WINDS"},"data":[0,0,0,0,0,0,0,0,0,0,0,0,0,0,0,0,0,0,0,0,0,0,0,0,0,0,0,0,0,0,0,0,0,0,0,0,0,0,0,0,0,0,0,0,0,0,0,0,0,0,0,0,0,0,0,0,0,0,-3.1332,-3.1332,0,-3.1364,-3.1364,-3.1365,-3.1342,-3.1341,-3.1339,-3.1339,-3.1371,-3.1373,-3.1375,0,0,0,0,0,0,0,0,0,0,0,0,0,-3.1252,-3.1254,-3.1332,-3.1332,-3.1333,-3.1364,-3.1364,-3.1365,-3.1342,-3.134,-3.1339,-3.1338,-3.1371,-3.1373,-3.1375,0,0,0,0,0,0,0,0,0,0,0,0,0,-3.1286,-3.1254,-3.1332,-3.1325,-3.1325,-3.1364,-3.1364,-3.1365,-3.1342,-3.134,-3.1339,-3.1337,-3.137,-3.1372,-3.1375,-3.1423,0,0,-3.1384,-3.1385,0,0,0,0,0,0,0,0,-3.1284,-3.1289,-3.1326,-3.1326,-3.1325,-3.1347,-3.1348,-3.1384,-3.1342,-3.1335,-3.1338,-3.1337,-3.1364,-3.1367,-3.1377,-3.1424,-3.1426,-3.1384,-3.1385,-3.1387,-3.1387,0,0,0,0,0,0,0,-3.1281,-3.1287,-3.1345,-3.1326,-3.1326,-3.1321,-3.1324,-3.1355,-3.1358,-3.1336,-3.1334,-3.1338,-3.1364,-3.1374,-3.1377,-3.1426,-3.1384,-3.1386,-3.1388,-3.1389,-3.1517,-3.1519,0,0,0,0,0,0,-3.128,-3.1285,-3.1344,-3.1346,-3.13,-3.1323,-3.1327,-3.1342,-3.1358,-3.1359,-3.134,-3.1337,-3.137,-3.1374,-3.1379,-3.1437,-3.1387,-3.1389,-3.1391,-3.1515,-3.1517,-3.1519,0,0,0,0,0,0,-3.1278,-3.1285,-3.1342,-3.1315,-3.1322,-3.1326,-3.1343,-3.1343,-3.1353,-3.1361,-3.1361,-3.135,-3.1369,-3.1375,-3.1413,-3.1438,-3.139,-3.1393,-3.1513,-3.1516,-3.1518,-3.1554,0,0,0,0,0,0,-3.1276,-3.1285,-3.1302,-3.1316,-3.1323,-3.1376,-3.1345,-3.1345,-3.1358,-3.1355,-3.137,-3.1371,-3.1369,-3.1409,-3.1415,-3.1441,-3.1395,-3.1511,-3.1514,-3.1518,-3.1551,-3.1558,-3.1564,0,0,0,0,0,-3.1273,-3.1311,-3.1303,-3.1311,-3.1346,-3.1377,-3.1382,-3.1378,-3.136,-3.1379,-3.1384,-3.137,-3.1434,-3.1413,-3.142,-3.1447,-3.1509,-3.1513,-3.1517,-3.1548,-3.1557,-3.1564,0,0,0,0,0,0,-3.13,-3.1312,-3.1304,-3.1347,-3.1361,-3.1373,-3.1396,-3.1387,-3.1406,-3.1403,-3.1397,-3.1401,-3.1441,-3.1447,-3.1424,-3.1495,-3.1469,-3.1475,-3.149,-3.1498,-3.1504,-3.1503,-3.1397,0,0,0,0,0,-3.1311,-3.1335,-3.1344,-3.1381,-3.1389,-3.1392,-3.1405,-3.1401,-3.1416,-3.1421,-3.1429,-3.1444,-3.1467,-3.1482,-3.1504,-3.1551,-3.1555,-3.1574,-3.158,-3.1585,-3.1591,-3.1619,-3.1628,-3.1532,-3.1532,-3.1532,0,0,-3.1334,-3.1343,-3.1359,-3.1387,-3.1398,-3.1424,-3.1397,-3.1425,-3.1444,-3.1425,-3.1463,-3.1469,-3.1485,-3.1528,-3.1548,-3.1535,-3.1618,-3.159,-3.1595,-3.1597,-3.1624,-3.1633,-3.1641,-3.1535,-3.1535,-3.1534,0,0,-3.1389,-3.1398,-3.1431,-3.1442,-3.1459,-3.1461,-3.1469,-3.1482,-3.1486,-3.1523,-3.151,-3.1533,-3.1573,-3.1586,-3.1597,-3.166,-3.1649,-3.1667,-3.1701,-3.1728,-3.1736,-3.1743,-3.1767,-3.1775,-3.1672,-3.1672,-3.1672,0,-3.1415,-3.1454,-3.1449,-3.1479,-3.1493,-3.1477,-3.1512,-3.1523,-3.1546,-3.1556,-3.1541,-3.1592,-3.1601,-3.1649,-3.1664,-3.1673,-3.1684,-3.1666,-3.1735,-3.1742,-3.1748,-3.1771,-3.178,-3.1674,-3.1674,-3.1673,-3.1673,0,-3.1487,-3.1514,-3.1538,-3.1562,-3.1578,-3.161,-3.1611,-3.1628,-3.1623,-3.1626,-3.1665,-3.1676,-3.1701,-3.1712,-3.1707,-3.1759,-3.1751,-3.1736,-3.1709,-3.1759,-3.1781,-3.179,-3.1677,-3.1676,-3.1676,-3.1675,0,0,-3.156,-3.1581,-3.1591,-3.1602,-3.162,-3.1641,-3.1673,-3.1698,-3.1713,-3.173,-3.1757,-3.1792,-3.1779,-3.1792,-3.1788,-3.1812,-3.1864,-3.1794,-3.1794,-3.1809,-3.1925,-3.1938,-3.1948,-3.1856,-3.1858,-3.1859,-3.1924,0,-3.1618,-3.1674,-3.1671,-3.1723,-3.175,-3.1736,-3.1764,-3.1778,-3.1783,-3.1806,-3.181,-3.1836,-3.1815,-3.1824,-3.1846,-3.1852,-3.1887,-3.1847,-3.1883,-3.1885,-3.1882,-3.1959,-3.1973,-3.2034,-3.1933,-3.1934,-3.1935,0,-3.1693,-3.1713,-3.1769,-3.1785,-3.1796,-3.1821,-3.1845,-3.1866,-3.1883,-3.1885,-3.1901,-3.1893,-3.1927,-3.1899,-3.1945,-3.1919,-3.1933,-3.1938,-3.194,-3.1945,-3.1914,-3.1968,-3.2053,-3.2063,-3.1948,-3.1947,-3.1946,0,-3.1744,-3.1785,-3.1824,-3.1834,-3.1853,-3.1871,-3.188,-3.1895,-3.1911,-3.1931,-3.1942,-3.1966,-3.198,-3.1999,-3.1999,-3.1978,-3.2047,-3.2018,-3.2051,-3.2051,-3.2067,-3.2066,-3.2158,-3.2073,-3.2073,-3.2072,-3.2072,0,-3.181,-3.1845,-3.1847,-3.1872,-3.1911,-3.1908,-3.1947,-3.1954,-3.1968,-3.1994,-3.1983,-3.2008,-3.2005,-3.203,-3.203,-3.2071,-3.2076,-3.2079,-3.2079,-3.2082,-3.2082,-3.2092,-3.2089,-3.2075,-3.2074,-3.2074,-3.2073,0,-3.1874,-3.1877,-3.1919,-3.1934,-3.1939,-3.1967,-3.1981,-3.2004,-3.2008,-3.2041,-3.2049,-3.2055,-3.2084,-3.2086,-3.2119,-3.2119,-3.2169,-3.2163,-3.2164,-3.2163,-3.2197,-3.2194,-3.23,-3.2314,-3.2218,-3.2219,-3.2219,0,-3.1917,-3.1944,-3.1963,-3.198,-3.199,-3.2017,-3.2034,-3.2032,-3.2049,-3.2072,-3.2093,-3.2121,-3.2144,-3.2192,-3.22,-3.2226,-3.2222,-3.2257,-3.2226,-3.2228,-3.2225,-3.2225,-3.2228,-3.2263,-3.2265,-3.2265,-3.2266,0,-3.1995,-3.1995,-3.2019,-3.2045,-3.2065,-3.2085,-3.2103,-3.2118,-3.2118,-3.2139,-3.2169,-3.2187,-3.2222,-3.2251,-3.2277,-3.2287,-3.2278,-3.2276,-3.2285,-3.2289,-3.2289,-3.2292,-3.2183,-3.2274,-3.2273,-3.2272,-3.2272,-3.2272,-3.2051,-3.2076,-3.2093,-3.2121,-3.2135,-3.2153,-3.2177,-3.2184,-3.2209,-3.2238,-3.2235,-3.227,-3.2287,-3.2321,-3.2333,-3.236,-3.2348,-3.2361,-3.2365,-3.2368,-3.2373,-3.2283,-3.2364,-3.2364,-3.2364,-3.2364,-3.2363,0,-3.213,-3.2141,-3.2167,-3.2194,-3.2217,-3.2205,-3.2226,-3.2246,-3.2276,-3.2293,-3.2316,-3.2352,-3.2381,-3.2391,-3.2419,-3.2439,-3.2436,-3.2447,-3.2447,-3.2449,-3.2381,-3.2371,-3.2449,-3.2449,-3.2449,-3.2449,-3.2449,-3.2449,-3.2174,-3.2216,-3.2218,-3.2267,-3.2277,-3.2312,-3.2324,-3.2342,-3.2356,-3.2397,-3.2421,-3.2427,-3.2442,-3.2471,-3.2498,-3.25,-3.2512,-3.2525,-3.2526,-3.2462,-3.2454,-3.2446,-3.2437,-3.2527,-3.2527,-3.2593,-3.2593,-3.2594]}]]